SKYMED 4

导读

SKYMED 4(全称COSMO-SkyMed 4)是意大利航天局研制的第一代对地观测卫星,属于COSMO-SkyMed星座的第四颗组网卫星,于2010年11月6日发射入轨。卫星运行于620公里高度的太阳同步轨道,携带合成孔径雷达,可不受天气光照影响获取高分辨率地表影像,服务于灾害监测、国防安全、资源勘探、海事管理等军民多个领域,为全球环境治理与安全保障提供了重要数据支撑。

Basic Information
目录编号:
37216
目录名称:
SKYMED 4
国际标识:
2010-060A
轨道中心:
EARTH
卫星名称:
SKYMED 4
卫星全名:
--
卫星状态:
在轨 (已飞行5782 天)
发射日期:
2010-11-06 UTC
国别 :
意大利 (IT)
星等 :
--
Orbit Information
数据来源 国际轨道数据 AOE轨道数据
星历时间 2026-09-05T12:10:08+0800
7小时前
查看轨道信息
2026-09-04T12:00:00+0800
1天前
查看轨道信息
半长轴 7000.663km 7000.675km
偏心率 0.000139 0.0001946
轨道倾角 97.892° 97.899°
近地点辐角 83.932° 80.762°
升交点赤经 70.632° 69.637°
平近点角 276.205° 309.334°
近地点 621.552km 621.175km
远地点 623.5km 623.901km
周期 97.156分钟 97.156分钟
每日圈数 14.821564 14.821528
Detailed Information
使用方式:
暂无
2D Orbit Map
3D Orbit Map
Orbit Altitude Analysis Chart
Orbit Inclination Analysis Chart
Orbit Comprehensive Analysis Chart
View Comprehensive Chart
Conjunction Data List
Event ID Objects TCA Miss Dist (km) Collision Risk Probability Collision Risk Index (CRI) Action
CDM_260905-235703-494903-721625
SKYMED 4 (37216)
2026-09-05T
23:57:11+0000
2.514 km
极远距离
1.639593E-6 低风险 0.39
CDM_260906-033503-721606-157125
SKYMED 4 (37216)
2026-09-06T
03:35:14+0000
2.923 km
极远距离
1.3903E-6 低风险 0.38
CDM_260907-051403-721605-447023
SKYMED 4 (37216)
2026-09-07T
05:14:41+0000
2.861 km
极远距离
1.317652E-6 低风险 0.37